Location: Middle Street
(51.7167°N, 0.0333°E)
Time: 23:29:57
(UTC+00:00)

ADEOS Rocket - Pass Details

Date: 20 January 2021
Orbit: 858 x 1307 km, 98.7° (Epoch: 01 March)

Event Time Altitude Azimuth Distance (km) Brightness Sun altitude
Rises 17:29:20 0° 12° (NNE) 3,839 5.8 -9.4°
Reaches altitude 10° 17:32:05 10° 6° (N) 2,814 5.2 -9.8°
Maximum altitude 17:37:53 42° 298° (WNW) 1,334 4.1 -10.6°
Drops below altitude 10° 17:43:11 10° 230° (SW) 2,571 6.4 -11.4°
Sets 17:45:36 0° 223° (SW) 3,473 7.0 -11.7°
